Menu Close Menu
Station Historical Data
Daily Summary for August 29, 2017 Units:  English    Metric   Both
« Previous Day
Next Day »
Daily Weekly Monthly Yearly Custom
  High: Low: Average:
Temperature: 81.5 °F 65.6 °F 73.4 °F
Dew Point: 66.6 °F 58.0 °F 62.7 °F
Humidity: 83% 56% 70%
Wind Speed: 1.0mph 0.0mph 0mph
Wind Gust: 3.0mph - -
Wind- - West
Pressure: 30.03 in 29.95 in -
Precipitation: 0.00 in    
Historical Graphs
 
 
Tabular Data for August 29, 2017
Time Temperature Dew Point Pressure Wind Wind Speed Wind Gust Humidity Rainfall Rate (Hourly) solar Conditions
00:00 70.3 °F 58.4 °F 29.99 in Calm   1.0 mph 66% 0.00 in WeatherDisplay:10.37 W/m2 BKN
00:05 70.4 °F 58.5 °F 29.99 in Calm   1.0 mph 66% 0.00 in WeatherDisplay:10.37 W/m2 BKN
00:10 70.4 °F 58.5 °F 29.99 in Calm   2.0 mph 66% 0.00 in WeatherDisplay:10.37 W/m2 BKN
00:15 70.3 °F 58.4 °F 29.99 in Calm   2.0 mph 66% 0.00 in WeatherDisplay:10.37 W/m2 BKN
00:20 70.3 °F 58.4 °F 30.00 in Calm   1.0 mph 66% 0.00 in WeatherDisplay:10.37 W/m2 BKN
00:25 70.2 °F 58.3 °F 30.00 in Calm   2.0 mph 66% 0.00 in WeatherDisplay:10.37 W/m2 BKN
00:30 70.1 °F 58.6 °F 29.99 in Calm     67% 0.00 in WeatherDisplay:10.37 W/m2 BKN
00:40 70.0 °F 58.5 °F 29.99 in Calm   1.0 mph 67% 0.00 in WeatherDisplay:10.37 W/m2 BKN
00:45 70.0 °F 58.5 °F 29.99 in Calm   1.0 mph 67% 0.00 in WeatherDisplay:10.37 W/m2 BKN
00:50 69.9 °F 58.0 °F 29.99 in Calm   1.0 mph 66% 0.00 in WeatherDisplay:10.37 W/m2 BKN
00:55 70.0 °F 58.5 °F 29.99 in Calm   1.0 mph 67% 0.00 in WeatherDisplay:10.37 W/m2 BKN
01:00 69.9 °F 58.4 °F 29.99 in Calm   1.0 mph 67% 0.00 in WeatherDisplay:10.37 W/m2 BKN
01:05 69.9 °F 58.0 °F 29.99 in Calm   1.0 mph 66% 0.00 in WeatherDisplay:10.37 W/m2 BKN
01:10 69.9 °F 58.0 °F 29.99 in Calm   3.0 mph 66% 0.00 in WeatherDisplay:10.37 W/m2 BKN
01:15 70.0 °F 58.1 °F 29.99 in Calm   2.0 mph 66% 0.00 in WeatherDisplay:10.37 W/m2 BKN
01:20 70.0 °F 58.1 °F 29.99 in Calm   2.0 mph 66% 0.00 in WeatherDisplay:10.37 W/m2 BKN
01:25 70.0 °F 58.1 °F 29.99 in West 1.0 mph 3.0 mph 66% 0.00 in WeatherDisplay:10.37 W/m2 BKN
01:30 70.0 °F 58.1 °F 29.99 in Calm   2.0 mph 66% 0.00 in WeatherDisplay:10.37 W/m2 BKN
01:35 69.9 °F 58.0 °F 29.99 in Calm   2.0 mph 66% 0.00 in WeatherDisplay:10.37 W/m2 BKN
01:40 69.8 °F 58.3 °F 29.99 in WNW 1.0 mph 2.0 mph 67% 0.00 in WeatherDisplay:10.37 W/m2 BKN
01:45 69.7 °F 58.3 °F 29.99 in Calm   2.0 mph 67% 0.00 in WeatherDisplay:10.37 W/m2 BKN
01:50 69.7 °F 58.3 °F 29.98 in Calm   3.0 mph 67% 0.00 in WeatherDisplay:10.37 W/m2 BKN
02:00 69.6 °F 58.5 °F 29.98 in Calm   2.0 mph 68% 0.00 in WeatherDisplay:10.37 W/m2 BKN
02:05 69.4 °F 58.4 °F 29.98 in Calm   2.0 mph 68% 0.00 in WeatherDisplay:10.37 W/m2 BKN
02:10 69.4 °F 58.4 °F 29.98 in Calm   1.0 mph 68% 0.00 in WeatherDisplay:10.37 W/m2 BKN
02:15 69.3 °F 58.3 °F 29.98 in Calm   1.0 mph 68% 0.00 in WeatherDisplay:10.37 W/m2 BKN
02:20 69.2 °F 58.2 °F 29.98 in Calm   1.0 mph 68% 0.00 in WeatherDisplay:10.37 W/m2 BKN
02:25 69.2 °F 58.6 °F 29.98 in Calm   1.0 mph 69% 0.00 in WeatherDisplay:10.37 W/m2 BKN
02:30 69.1 °F 58.5 °F 29.98 in Calm   1.0 mph 69% 0.00 in WeatherDisplay:10.37 W/m2 BKN
02:40 69.0 °F 58.4 °F 29.98 in Calm   1.0 mph 69% 0.00 in WeatherDisplay:10.37 W/m2 BKN
02:45 69.0 °F 58.4 °F 29.98 in Calm     69% 0.00 in WeatherDisplay:10.37 W/m2 BKN
02:50 69.0 °F 58.4 °F 29.98 in Calm   1.0 mph 69% 0.00 in WeatherDisplay:10.37 W/m2 BKN
02:55 69.0 °F 58.4 °F 29.98 in Calm   1.0 mph 69% 0.00 in WeatherDisplay:10.37 W/m2 BKN
03:00 68.9 °F 58.7 °F 29.98 in Calm   1.0 mph 70% 0.00 in WeatherDisplay:10.37 W/m2 BKN
03:05 68.9 °F 58.7 °F 29.98 in Calm   1.0 mph 70% 0.00 in WeatherDisplay:10.37 W/m2 BKN
03:10 68.9 °F 58.7 °F 29.98 in Calm   1.0 mph 70% 0.00 in WeatherDisplay:10.37 W/m2 BKN
03:15 68.8 °F 58.6 °F 29.98 in Calm   1.0 mph 70% 0.00 in WeatherDisplay:10.37 W/m2 BKN
03:20 68.8 °F 58.6 °F 29.98 in Calm     70% 0.00 in WeatherDisplay:10.37 W/m2 BKN
03:25 68.8 °F 58.6 °F 29.98 in Calm     70% 0.00 in WeatherDisplay:10.37 W/m2 BKN
03:30 68.8 °F 58.6 °F 29.98 in Calm     70% 0.00 in WeatherDisplay:10.37 W/m2 BKN
03:35 68.8 °F 59.0 °F 29.98 in Calm   1.0 mph 71% 0.00 in WeatherDisplay:10.37 W/m2 BKN
03:40 68.7 °F 58.5 °F 29.98 in Calm   1.0 mph 70% 0.00 in WeatherDisplay:10.37 W/m2 BKN
03:45 68.7 °F 58.5 °F 29.98 in Calm     70% 0.00 in WeatherDisplay:10.37 W/m2 BKN
03:50 68.7 °F 58.9 °F 29.98 in Calm     71% 0.00 in WeatherDisplay:10.37 W/m2 BKN
03:55 68.7 °F 58.5 °F 29.97 in Calm     70% 0.00 in WeatherDisplay:10.37 W/m2 BKN
04:00 68.7 °F 58.5 °F 29.97 in Calm     70% 0.00 in WeatherDisplay:10.37 W/m2 BKN
04:10 68.7 °F 58.5 °F 29.97 in Calm   1.0 mph 70% 0.00 in WeatherDisplay:10.37 W/m2 BKN
04:15 68.7 °F 58.5 °F 29.97 in Calm   1.0 mph 70% 0.00 in WeatherDisplay:10.37 W/m2 BKN
04:20 68.6 °F 58.4 °F 29.97 in Calm   1.0 mph 70% 0.00 in WeatherDisplay:10.37 W/m2 BKN
04:25 68.5 °F 58.3 °F 29.97 in Calm   1.0 mph 70% 0.00 in WeatherDisplay:10.37 W/m2 BKN
04:30 68.5 °F 58.7 °F 29.96 in Calm     71% 0.00 in WeatherDisplay:10.37 W/m2 BKN
04:35 68.5 °F 58.3 °F 29.96 in Calm     70% 0.00 in WeatherDisplay:10.37 W/m2 BKN
04:40 68.5 °F 58.7 °F 29.97 in Calm     71% 0.00 in WeatherDisplay:10.37 W/m2 BKN
04:45 68.5 °F 58.7 °F 29.97 in Calm     71% 0.00 in WeatherDisplay:10.37 W/m2 BKN
04:50 68.4 °F 59.0 °F 29.97 in Calm     72% 0.00 in WeatherDisplay:10.37 W/m2 BKN
04:55 68.3 °F 58.5 °F 29.97 in Calm     71% 0.00 in WeatherDisplay:10.37 W/m2 BKN
05:00 68.3 °F 58.9 °F 29.97 in Calm     72% 0.00 in WeatherDisplay:10.37 W/m2 BKN
05:05 68.1 °F 59.1 °F 29.97 in Calm     73% 0.00 in WeatherDisplay:10.37 W/m2 BKN
05:10 68.1 °F 58.7 °F 29.97 in Calm     72% 0.00 in WeatherDisplay:10.37 W/m2 BKN
05:15 68.0 °F 59.0 °F 29.96 in Calm     73% 0.00 in WeatherDisplay:10.37 W/m2 BKN
05:20 67.9 °F 59.3 °F 29.96 in Calm     74% 0.00 in WeatherDisplay:10.37 W/m2 BKN
05:25 67.7 °F 59.1 °F 29.96 in Calm     74% 0.00 in WeatherDisplay:10.37 W/m2 BKN
05:30 67.6 °F 59.4 °F 29.96 in Calm     75% 0.00 in WeatherDisplay:10.37 W/m2 BKN
05:35 67.4 °F 59.2 °F 29.95 in Calm     75% 0.00 in WeatherDisplay:10.37 W/m2 BKN
05:40 67.3 °F 59.1 °F 29.96 in Calm     75% 0.00 in WeatherDisplay:10.37 W/m2 BKN
05:45 67.1 °F 59.3 °F 29.97 in Calm     76% 0.00 in WeatherDisplay:10.37 W/m2 BKN
05:50 66.9 °F 59.1 °F 29.97 in Calm     76% 0.00 in WeatherDisplay:10.37 W/m2 BKN
05:55 66.8 °F 59.4 °F 29.97 in Calm     77% 0.00 in WeatherDisplay:10.37 W/m2 BKN
06:00 66.7 °F 59.2 °F 29.97 in Calm     77% 0.00 in WeatherDisplay:10.37 W/m2 BKN
06:05 66.6 °F 59.2 °F 29.97 in Calm     77% 0.00 in WeatherDisplay:10.37 W/m2 BKN
06:10 66.4 °F 59.3 °F 29.97 in Calm     78% 0.00 in WeatherDisplay:10.37 W/m2 BKN
06:15 66.4 °F 59.3 °F 29.97 in Calm     78% 0.00 in WeatherDisplay:10.37 W/m2 BKN
06:20 66.3 °F 59.2 °F 29.97 in Calm     78% 0.00 in WeatherDisplay:10.37 W/m2 BKN
06:25 66.2 °F 59.5 °F 29.97 in Calm     79% 0.00 in WeatherDisplay:10.37 W/m2 BKN
06:30 66.1 °F 59.4 °F 29.97 in Calm     79% 0.00 in WeatherDisplay:10.37 W/m2 BKN
06:35 66.0 °F 59.7 °F 29.97 in Calm     80% 0.00 in WeatherDisplay:10.37 W/m2 BKN
06:40 65.9 °F 59.2 °F 29.97 in Calm     79% 0.00 in WeatherDisplay:10.37 W/m2 BKN
06:45 65.9 °F 59.6 °F 29.98 in Calm     80% 0.00 in WeatherDisplay:10.37 W/m2 BKN
06:50 65.8 °F 59.1 °F 29.98 in Calm     79% 0.00 in WeatherDisplay:10.37 W/m2 BKN
06:55 65.9 °F 59.6 °F 29.99 in Calm     80% 0.00 in WeatherDisplay:10.37 W/m2 BKN
07:00 65.9 °F 59.2 °F 29.99 in Calm     79% 0.00 in WeatherDisplay:10.37 W/m2 BKN
07:10 65.9 °F 59.6 °F 29.99 in Calm     80% 0.00 in WeatherDisplay:10.37 W/m2 BKN
07:15 65.9 °F 59.6 °F 29.99 in Calm     80% 0.00 in WeatherDisplay:10.37 W/m2 BKN
07:20 65.8 °F 59.8 °F 29.99 in Calm     81% 0.00 in WeatherDisplay:10.37 W/m2 BKN
07:30 65.6 °F 59.6 °F 30.00 in Calm     81% 0.00 in WeatherDisplay:10.37 W/m2 BKN
07:35 65.6 °F 60.0 °F 30.00 in Calm     82% 0.00 in WeatherDisplay:10.37 W/m2 BKN
07:40 65.6 °F 60.0 °F 30.00 in Calm     82% 0.00 in WeatherDisplay:10.37 W/m2 BKN
07:45 65.6 °F 60.0 °F 30.00 in Calm     82% 0.00 in WeatherDisplay:10.37 W/m2 BKN
07:50 65.6 °F 60.0 °F 30.00 in Calm     82% 0.00 in WeatherDisplay:10.37 W/m2 BKN
07:55 65.7 °F 60.4 °F 30.00 in Calm     83% 0.00 in WeatherDisplay:10.37 W/m2 BKN
08:00 65.8 °F 60.5 °F 30.00 in Calm     83% 0.00 in WeatherDisplay:10.37 W/m2 BKN
08:05 65.9 °F 60.2 °F 30.00 in Calm     82% 0.00 in WeatherDisplay:10.37 W/m2 BKN
08:10 65.9 °F 60.3 °F 30.00 in Calm     82% 0.00 in WeatherDisplay:10.37 W/m2 BKN
08:15 66.1 °F 60.4 °F 30.01 in Calm     82% 0.00 in WeatherDisplay:10.37 W/m2 BKN
08:20 66.3 °F 60.6 °F 30.01 in Calm     82% 0.00 in WeatherDisplay:10.37 W/m2 BKN
08:25 66.6 °F 60.5 °F 30.01 in Calm     81% 0.00 in WeatherDisplay:10.37 W/m2 BKN
08:30 66.9 °F 60.9 °F 30.01 in Calm     81% 0.00 in WeatherDisplay:10.37 W/m2 BKN
08:35 67.2 °F 60.8 °F 30.01 in Calm     80% 0.00 in WeatherDisplay:10.37 W/m2 BKN
08:40 67.5 °F 61.1 °F 30.01 in Calm     80% 0.00 in WeatherDisplay:10.37 W/m2 BKN
08:45 67.8 °F 61.8 °F 30.01 in Calm     81% 0.00 in WeatherDisplay:10.37 W/m2 BKN
08:50 68.1 °F 61.7 °F 30.01 in Calm     80% 0.00 in WeatherDisplay:10.37 W/m2 BKN
08:55 68.3 °F 61.1 °F 30.01 in Calm     78% 0.00 in WeatherDisplay:10.37 W/m2 BKN
09:00 68.4 °F 61.6 °F 30.01 in Calm     79% 0.00 in WeatherDisplay:10.37 W/m2 BKN
09:05 68.6 °F 61.8 °F 30.01 in Calm     79% 0.00 in WeatherDisplay:10.37 W/m2 BKN
09:10 68.8 °F 62.4 °F 30.01 in Calm     80% 0.00 in WeatherDisplay:10.37 W/m2 BKN
09:15 69.0 °F 62.2 °F 30.01 in Calm     79% 0.00 in WeatherDisplay:10.37 W/m2 BKN
09:20 69.3 °F 62.5 °F 30.01 in Calm     79% 0.00 in WeatherDisplay:10.37 W/m2 BKN
09:25 69.6 °F 62.1 °F 30.01 in Calm     77% 0.00 in WeatherDisplay:10.37 W/m2 BKN
09:30 69.9 °F 62.0 °F 30.01 in Calm   1.0 mph 76% 0.00 in WeatherDisplay:10.37 W/m2 BKN
09:40 70.5 °F 62.2 °F 30.02 in Calm     75% 0.00 in WeatherDisplay:10.37 W/m2 BKN
09:45 70.9 °F 62.6 °F 30.02 in Calm     75% 0.00 in WeatherDisplay:10.37 W/m2 BKN
09:50 71.2 °F 62.5 °F 30.02 in Calm     74% 0.00 in WeatherDisplay:10.37 W/m2 BKN
09:55 71.6 °F 62.5 °F 30.02 in Calm   1.0 mph 73% 0.00 in WeatherDisplay:10.37 W/m2 BKN
10:00 72.1 °F 62.9 °F 30.02 in Calm   3.0 mph 73% 0.00 in WeatherDisplay:10.37 W/m2 BKN
10:10 73.0 °F 63.0 °F 30.02 in North 1.0 mph 2.0 mph 71% 0.00 in WeatherDisplay:10.37 W/m2 BKN
10:15 73.1 °F 63.1 °F 30.02 in Calm   2.0 mph 71% 0.00 in WeatherDisplay:10.37 W/m2 BKN
10:20 73.3 °F 63.3 °F 30.02 in Calm   1.0 mph 71% 0.00 in WeatherDisplay:10.37 W/m2 BKN
10:25 73.3 °F 63.3 °F 30.02 in WNW 1.0 mph 1.0 mph 71% 0.00 in WeatherDisplay:10.37 W/m2 BKN
10:30 73.7 °F 63.7 °F 30.02 in Calm   1.0 mph 71% 0.00 in WeatherDisplay:10.37 W/m2 BKN
10:40 74.0 °F 64.0 °F 30.03 in Calm   1.0 mph 71% 0.00 in WeatherDisplay:10.37 W/m2 BKN
10:45 74.6 °F 63.7 °F 30.03 in Calm   1.0 mph 69% 0.00 in WeatherDisplay:10.37 W/m2 BKN
10:55 74.9 °F 64.5 °F 30.02 in Calm   1.0 mph 70% 0.00 in WeatherDisplay:10.37 W/m2 BKN
11:00 75.0 °F 64.1 °F 30.02 in Calm   1.0 mph 69% 0.00 in WeatherDisplay:10.37 W/m2 BKN
11:10 75.1 °F 64.6 °F 30.02 in Calm   1.0 mph 70% 0.00 in WeatherDisplay:10.37 W/m2 BKN
11:15 75.3 °F 64.4 °F 30.02 in Calm   1.0 mph 69% 0.00 in WeatherDisplay:10.37 W/m2 BKN
11:20 75.5 °F 64.2 °F 30.02 in Calm   1.0 mph 68% 0.00 in WeatherDisplay:10.37 W/m2 BKN
11:25 75.9 °F 64.2 °F 30.02 in Calm   1.0 mph 67% 0.00 in WeatherDisplay:10.37 W/m2 BKN
11:30 75.8 °F 64.1 °F 30.02 in Calm   2.0 mph 67% 0.00 in WeatherDisplay:10.37 W/m2 BKN
11:35 76.1 °F 64.8 °F 30.02 in Calm   1.0 mph 68% 0.00 in WeatherDisplay:10.37 W/m2 BKN
11:40 76.4 °F 64.6 °F 30.02 in Calm   1.0 mph 67% 0.00 in WeatherDisplay:10.37 W/m2 BKN
11:45 76.1 °F 64.3 °F 30.02 in Calm   1.0 mph 67% 0.00 in WeatherDisplay:10.37 W/m2 BKN
11:50 76.1 °F 64.8 °F 30.03 in Calm     68% 0.00 in WeatherDisplay:10.37 W/m2 BKN
11:55 76.1 °F 64.3 °F 30.03 in Calm   1.0 mph 67% 0.00 in WeatherDisplay:10.37 W/m2 BKN
12:00 75.8 °F 64.1 °F 30.03 in Calm   1.0 mph 67% 0.00 in WeatherDisplay:10.37 W/m2 BKN
12:05 75.8 °F 64.5 °F 30.03 in Calm     68% 0.00 in WeatherDisplay:10.37 W/m2 BKN
12:10 75.7 °F 64.4 °F 30.03 in Calm     68% 0.00 in WeatherDisplay:10.37 W/m2 BKN
12:15 75.7 °F 64.8 °F 30.02 in Calm   1.0 mph 69% 0.00 in WeatherDisplay:10.37 W/m2 BKN
12:20 75.7 °F 64.4 °F 30.02 in Calm     68% 0.00 in WeatherDisplay:10.37 W/m2 BKN
12:25 76.0 °F 65.1 °F 30.02 in Calm   1.0 mph 69% 0.00 in WeatherDisplay:10.37 W/m2 BKN
12:30 76.1 °F 64.4 °F 30.02 in Calm   1.0 mph 67% 0.00 in WeatherDisplay:10.37 W/m2 BKN
12:40 77.0 °F 64.8 °F 30.01 in Calm   2.0 mph 66% 0.00 in WeatherDisplay:10.37 W/m2 BKN
12:45 77.7 °F 65.0 °F 30.01 in WNW 1.0 mph 2.0 mph 65% 0.00 in WeatherDisplay:10.37 W/m2 BKN
12:50 78.1 °F 64.9 °F 30.01 in Calm   1.0 mph 64% 0.00 in WeatherDisplay:10.37 W/m2 OVC
12:55 78.1 °F 65.0 °F 30.01 in Calm   1.0 mph 64% 0.00 in WeatherDisplay:10.37 W/m2 OVC
13:00 78.9 °F 65.2 °F 30.01 in Calm     63% 0.00 in WeatherDisplay:10.37 W/m2 OVC
13:05 79.2 °F 65.1 °F 30.01 in Calm     62% 0.00 in WeatherDisplay:10.37 W/m2 OVC
13:10 79.4 °F 64.3 °F 30.01 in Calm     60% 0.00 in WeatherDisplay:10.37 W/m2 OVC
13:15 79.7 °F 65.5 °F 30.01 in Calm     62% 0.00 in WeatherDisplay:10.37 W/m2 OVC
13:20 79.5 °F 65.3 °F 30.00 in Calm     62% 0.00 in WeatherDisplay:10.37 W/m2 BKN
13:25 79.2 °F 65.1 °F 30.00 in Calm     62% 0.00 in WeatherDisplay:10.37 W/m2 BKN
13:30 79.0 °F 65.3 °F 30.00 in Calm     63% 0.00 in WeatherDisplay:10.37 W/m2 BKN
13:40 79.4 °F 64.8 °F 30.00 in Calm     61% 0.00 in WeatherDisplay:10.37 W/m2 BKN
13:45 79.6 °F 65.5 °F 30.00 in Calm     62% 0.00 in WeatherDisplay:10.37 W/m2 BKN
13:50 79.8 °F 64.7 °F 30.00 in North 1.0 mph 2.0 mph 60% 0.00 in WeatherDisplay:10.37 W/m2 BKN
13:55 79.6 °F 64.4 °F 30.00 in Calm   2.0 mph 60% 0.00 in WeatherDisplay:10.37 W/m2 BKN
14:00 80.1 °F 65.9 °F 30.00 in Calm   1.0 mph 62% 0.00 in WeatherDisplay:10.37 W/m2 BKN
14:05 80.9 °F 65.8 °F 29.99 in Calm   2.0 mph 60% 0.00 in WeatherDisplay:10.37 W/m2 BKN
14:15 81.0 °F 64.8 °F 29.99 in Calm   1.0 mph 58% 0.00 in WeatherDisplay:10.37 W/m2 BKN
14:20 80.7 °F 65.1 °F 29.99 in Calm   1.0 mph 59% 0.00 in WeatherDisplay:10.37 W/m2 BKN
14:25 80.4 °F 63.7 °F 29.99 in Calm   1.0 mph 57% 0.00 in WeatherDisplay:10.37 W/m2 BKN
14:30 79.8 °F 64.2 °F 29.99 in Calm   1.0 mph 59% 0.00 in WeatherDisplay:10.37 W/m2 BKN
14:40 79.7 °F 65.1 °F 29.99 in Calm   1.0 mph 61% 0.00 in WeatherDisplay:10.37 W/m2 BKN
14:45 80.1 °F 64.4 °F 29.99 in Calm   2.0 mph 59% 0.00 in WeatherDisplay:10.37 W/m2 BKN
14:55 80.6 °F 65.4 °F 29.98 in Calm   1.0 mph 60% 0.00 in WeatherDisplay:10.37 W/m2 BKN
15:00 81.0 °F 65.3 °F 29.98 in Calm   1.0 mph 59% 0.00 in WeatherDisplay:10.37 W/m2 BKN
15:05 80.9 °F 64.7 °F 29.98 in Calm     58% 0.00 in WeatherDisplay:10.37 W/m2 BKN
15:10 80.9 °F 64.2 °F 29.98 in Calm     57% 0.00 in WeatherDisplay:10.37 W/m2 BKN
15:15 80.9 °F 65.2 °F 29.98 in Calm   2.0 mph 59% 0.00 in WeatherDisplay:10.37 W/m2 BKN
15:20 80.7 °F 66.0 °F 29.97 in Calm   1.0 mph 61% 0.00 in WeatherDisplay:10.37 W/m2 BKN
15:25 80.5 °F 64.9 °F 29.97 in Calm   1.0 mph 59% 0.00 in WeatherDisplay:10.37 W/m2 BKN
15:35 80.6 °F 64.5 °F 29.97 in Calm   1.0 mph 58% 0.00 in WeatherDisplay:10.37 W/m2 BKN
15:40 80.6 °F 65.0 °F 29.97 in Calm   1.0 mph 59% 0.00 in WeatherDisplay:10.37 W/m2 BKN
15:45 80.7 °F 65.0 °F 29.97 in Calm   1.0 mph 59% 0.00 in WeatherDisplay:10.37 W/m2 BKN
15:50 80.9 °F 66.2 °F 29.97 in Calm   1.0 mph 61% 0.00 in WeatherDisplay:10.37 W/m2 BKN
15:55 81.0 °F 65.3 °F 29.97 in Calm     59% 0.00 in WeatherDisplay:10.37 W/m2 BKN
16:00 80.9 °F 65.2 °F 29.97 in NE 1.0 mph 2.0 mph 59% 0.00 in WeatherDisplay:10.37 W/m2 BKN
16:10 80.9 °F 64.8 °F 29.97 in Calm   1.0 mph 58% 0.00 in WeatherDisplay:10.37 W/m2 BKN
16:15 81.0 °F 64.9 °F 29.97 in Calm     58% 0.00 in WeatherDisplay:10.37 W/m2 BKN
16:20 80.9 °F 65.3 °F 29.97 in Calm   1.0 mph 59% 0.00 in WeatherDisplay:10.37 W/m2 BKN
16:30 80.5 °F 65.3 °F 29.97 in Calm   1.0 mph 60% 0.00 in WeatherDisplay:10.37 W/m2 BKN
16:35 80.3 °F 64.7 °F 29.97 in Calm   1.0 mph 59% 0.00 in WeatherDisplay:10.37 W/m2 BKN
16:40 80.3 °F 65.2 °F 29.97 in Calm   1.0 mph 60% 0.00 in WeatherDisplay:10.37 W/m2 BKN
16:45 80.6 °F 65.9 °F 29.96 in Calm   1.0 mph 61% 0.00 in WeatherDisplay:10.37 W/m2 BKN
16:50 80.7 °F 65.6 °F 29.97 in Calm   2.0 mph 60% 0.00 in WeatherDisplay:10.37 W/m2 BKN
16:55 81.0 °F 65.8 °F 29.97 in Calm     60% 0.00 in WeatherDisplay:10.37 W/m2 BKN
17:00 81.2 °F 65.5 °F 29.96 in Calm   1.0 mph 59% 0.00 in WeatherDisplay:10.37 W/m2 BKN
17:05 81.0 °F 65.3 °F 29.97 in Calm   1.0 mph 59% 0.00 in WeatherDisplay:10.37 W/m2 BKN
17:10 80.9 °F 65.2 °F 29.97 in Calm   1.0 mph 59% 0.00 in WeatherDisplay:10.37 W/m2 BKN
17:15 81.0 °F 65.3 °F 29.97 in Calm     59% 0.00 in WeatherDisplay:10.37 W/m2 BKN
17:20 81.0 °F 65.3 °F 29.97 in Calm     59% 0.00 in WeatherDisplay:10.37 W/m2 BKN
17:25 80.9 °F 64.8 °F 29.97 in Calm   1.0 mph 58% 0.00 in WeatherDisplay:10.37 W/m2 BKN
17:30 81.0 °F 65.8 °F 29.97 in Calm   1.0 mph 60% 0.00 in WeatherDisplay:10.37 W/m2 BKN
17:40 81.3 °F 65.6 °F 29.97 in Calm     59% 0.00 in WeatherDisplay:10.37 W/m2 BKN
17:45 81.5 °F 65.8 °F 29.97 in Calm     59% 0.00 in WeatherDisplay:10.37 W/m2 BKN
17:50 81.5 °F 65.8 °F 29.97 in Calm   1.0 mph 59% 0.00 in WeatherDisplay:10.37 W/m2 BKN
17:55 81.2 °F 65.1 °F 29.97 in Calm   1.0 mph 58% 0.00 in WeatherDisplay:10.37 W/m2 BKN
18:00 81.1 °F 63.9 °F 29.97 in Calm     56% 0.00 in WeatherDisplay:10.37 W/m2 BKN
18:05 81.1 °F 65.4 °F 29.98 in Calm     59% 0.00 in WeatherDisplay:10.37 W/m2 BKN
18:10 80.9 °F 66.2 °F 29.98 in Calm     61% 0.00 in WeatherDisplay:10.37 W/m2 BKN
18:15 80.7 °F 66.5 °F 29.98 in Calm     62% 0.00 in WeatherDisplay:10.37 W/m2 BKN
18:20 80.5 °F 65.8 °F 29.98 in Calm   1.0 mph 61% 0.00 in WeatherDisplay:10.37 W/m2 BKN
18:25 80.2 °F 65.5 °F 29.98 in Calm     61% 0.00 in WeatherDisplay:10.37 W/m2 BKN
18:30 80.1 °F 66.4 °F 29.98 in Calm     63% 0.00 in WeatherDisplay:10.37 W/m2 BKN
18:40 79.7 °F 66.0 °F 29.98 in Calm     63% 0.00 in WeatherDisplay:10.37 W/m2 BKN
18:45 79.5 °F 66.2 °F 29.98 in Calm     64% 0.00 in WeatherDisplay:10.37 W/m2 BKN
18:50 79.2 °F 66.0 °F 29.98 in Calm     64% 0.00 in WeatherDisplay:10.37 W/m2 BKN
18:55 79.0 °F 65.8 °F 29.98 in Calm     64% 0.00 in WeatherDisplay:10.37 W/m2 BKN
19:00 78.9 °F 66.6 °F 29.98 in Calm     66% 0.00 in WeatherDisplay:10.37 W/m2 BKN
19:10 78.5 °F 66.2 °F 29.98 in Calm     66% 0.00 in WeatherDisplay:10.37 W/m2 BKN
19:15 78.2 °F 66.3 °F 29.98 in Calm     67% 0.00 in WeatherDisplay:10.37 W/m2 BKN
19:20 77.9 °F 66.5 °F 29.98 in Calm     68% 0.00 in WeatherDisplay:10.37 W/m2 OVC
19:25 77.7 °F 66.3 °F 29.98 in Calm     68% 0.00 in WeatherDisplay:10.37 W/m2 OVC
19:30 77.6 °F 66.6 °F 29.98 in Calm     69% 0.00 in WeatherDisplay:10.37 W/m2 OVC
19:40 77.0 °F 66.0 °F 29.98 in Calm     69% 0.00 in WeatherDisplay:10.37 W/m2 OVC
19:45 76.8 °F 65.8 °F 29.98 in Calm     69% 0.00 in WeatherDisplay:10.37 W/m2 OVC
19:50 76.6 °F 66.1 °F 29.98 in Calm     70% 0.00 in WeatherDisplay:10.37 W/m2 OVC
19:55 76.5 °F 66.0 °F 29.99 in Calm     70% 0.00 in WeatherDisplay:10.37 W/m2 OVC
20:00 76.4 °F 65.9 °F 29.99 in Calm     70% 0.00 in WeatherDisplay:10.37 W/m2 OVC
20:05 76.3 °F 66.2 °F 29.99 in Calm     71% 0.00 in WeatherDisplay:10.37 W/m2 OVC
20:10 76.1 °F 65.6 °F 29.99 in Calm     70% 0.00 in WeatherDisplay:10.37 W/m2 OVC
20:15 76.0 °F 65.9 °F 29.99 in Calm     71% 0.00 in WeatherDisplay:10.37 W/m2 OVC
20:20 75.9 °F 65.8 °F 29.99 in Calm     71% 0.00 in WeatherDisplay:10.37 W/m2 OVC
20:25 75.8 °F 66.1 °F 29.99 in Calm     72% 0.00 in WeatherDisplay:10.37 W/m2 OVC
20:30 75.7 °F 66.0 °F 29.99 in Calm     72% 0.00 in WeatherDisplay:10.37 W/m2 OVC
20:40 75.4 °F 66.2 °F 29.99 in Calm     73% 0.00 in WeatherDisplay:10.37 W/m2 OVC
20:45 75.3 °F 66.1 °F 29.99 in Calm     73% 0.00 in WeatherDisplay:10.37 W/m2 OVC
20:50 75.3 °F 66.0 °F 29.99 in Calm     73% 0.00 in WeatherDisplay:10.37 W/m2 OVC
20:55 75.2 °F 65.9 °F 29.99 in Calm     73% 0.00 in WeatherDisplay:10.37 W/m2 OVC
21:00 75.1 °F 65.9 °F 29.99 in Calm     73% 0.00 in WeatherDisplay:10.37 W/m2 OVC
21:05 75.0 °F 65.8 °F 29.99 in Calm     73% 0.00 in WeatherDisplay:10.37 W/m2 OVC
21:10 74.9 °F 65.7 °F 29.99 in Calm     73% 0.00 in WeatherDisplay:10.37 W/m2 OVC
21:15 74.8 °F 66.0 °F 29.99 in Calm     74% 0.00 in WeatherDisplay:10.37 W/m2 OVC
21:20 74.7 °F 65.9 °F 29.99 in Calm     74% 0.00 in WeatherDisplay:10.37 W/m2 OVC
21:25 74.6 °F 66.1 °F 29.99 in Calm     75% 0.00 in WeatherDisplay:10.37 W/m2 OVC
21:30 74.5 °F 66.1 °F 29.99 in Calm     75% 0.00 in WeatherDisplay:10.37 W/m2 OVC
21:40 74.4 °F 65.9 °F 29.99 in Calm     75% 0.00 in WeatherDisplay:10.37 W/m2 OVC
21:45 74.3 °F 66.2 °F 29.99 in Calm     76% 0.00 in WeatherDisplay:10.37 W/m2 OVC
21:50 74.2 °F 65.7 °F 29.99 in Calm     75% 0.00 in WeatherDisplay:10.37 W/m2 OVC
21:55 74.0 °F 66.0 °F 29.99 in Calm     76% 0.00 in WeatherDisplay:10.37 W/m2 OVC
22:00 73.9 °F 65.9 °F 29.99 in Calm     76% 0.00 in WeatherDisplay:10.37 W/m2 OVC
22:05 73.8 °F 65.7 °F 30.00 in Calm     76% 0.00 in WeatherDisplay:10.37 W/m2 OVC
22:10 73.6 °F 65.9 °F 30.00 in Calm     77% 0.00 in WeatherDisplay:10.37 W/m2 OVC
22:15 73.5 °F 65.8 °F 30.00 in Calm     77% 0.00 in WeatherDisplay:10.37 W/m2 OVC
22:20 73.3 °F 65.7 °F 30.00 in Calm     77% 0.00 in WeatherDisplay:10.37 W/m2 BKN
22:25 73.3 °F 65.7 °F 30.00 in Calm     77% 0.00 in WeatherDisplay:10.37 W/m2 BKN
22:30 73.2 °F 65.9 °F 30.00 in Calm     78% 0.00 in WeatherDisplay:10.37 W/m2 BKN
22:35 73.1 °F 65.8 °F 30.00 in Calm     78% 0.00 in WeatherDisplay:10.37 W/m2 BKN
22:40 73.0 °F 66.1 °F 30.00 in Calm     79% 0.00 in WeatherDisplay:10.37 W/m2 BKN
22:45 72.9 °F 66.0 °F 30.00 in Calm     79% 0.00 in WeatherDisplay:10.37 W/m2 BKN
22:50 72.8 °F 65.9 °F 30.00 in Calm     79% 0.00 in WeatherDisplay:10.37 W/m2 BKN
22:55 72.7 °F 65.8 °F 30.00 in Calm     79% 0.00 in WeatherDisplay:10.37 W/m2 BKN
23:00 72.7 °F 65.8 °F 30.00 in Calm     79% 0.00 in WeatherDisplay:10.37 W/m2 BKN
23:10 72.4 °F 65.9 °F 30.00 in Calm     80% 0.00 in WeatherDisplay:10.37 W/m2 BKN
23:15 72.2 °F 66.1 °F 30.00 in Calm     81% 0.00 in WeatherDisplay:10.37 W/m2 BKN
23:20 72.2 °F 66.0 °F 30.01 in Calm     81% 0.00 in WeatherDisplay:10.37 W/m2 OVC
23:25 72.1 °F 65.9 °F 30.01 in Calm     81% 0.00 in WeatherDisplay:10.37 W/m2 OVC
23:30 72.1 °F 65.9 °F 30.01 in Calm     81% 0.00 in WeatherDisplay:10.37 W/m2 OVC
23:35 72.1 °F 65.9 °F 30.01 in Calm     81% 0.00 in WeatherDisplay:10.37 W/m2 OVC
23:40 72.0 °F 66.2 °F 30.01 in Calm     82% 0.00 in WeatherDisplay:10.37 W/m2 OVC
23:45 72.0 °F 66.2 °F 30.01 in Calm     82% 0.00 in WeatherDisplay:10.37 W/m2 OVC
23:50 72.0 °F 66.2 °F 30.01 in Calm     82% 0.00 in WeatherDisplay:10.37 W/m2 OVC
23:55 71.9 °F 66.1 °F 30.01 in Calm     82% 0.00 in WeatherDisplay:10.37 W/m2 OVC
Piedmont Bend
Compliments of Weather Underground - 4 mb